[[{"header":{"parameterUnit":"m.s-1","parameterCategory":2,"la1":30.2991,"la2":30.254,"lo1":-89.0895,"lo2":-89.0444,"dy":0.0017,"dx":0.0017,"nx":28,"ny":28,"refTime":"2025-02-09T03:00:00:Z","depth":"0","parameterNumber":2,"parameterNumberName":"U-component_of_CURRENTS"},"data":[0,0,0,0,0,0,0,0,0,0,0,0,0,0,0,0,0,0,0,0,0,0,0,0,0,0,0,0,0,0,0,0,0,0,0,0,0,0,0,0,0,0,0,0,0,0,0,0,0,0,0,0,0,0,0,0,0,0,0.2938,0.2937,0,0.2856,0.2855,0.2854,0.281,0.281,0.281,0.281,0.2752,0.275,0.2749,0,0,0,0,0,0,0,0,0,0,0,0,0,0.3084,0.3081,0.2938,0.2937,0.2936,0.2856,0.2855,0.2854,0.281,0.281,0.281,0.281,0.2752,0.275,0.2749,0,0,0,0,0,0,0,0,0,0,0,0,0,0.3014,0.308,0.2938,0.2904,0.29,0.2856,0.2855,0.2854,0.281,0.281,0.281,0.281,0.2753,0.2751,0.2749,0.2741,0,0,0.2742,0.2741,0,0,0,0,0,0,0,0,0.3018,0.3009,0.291,0.2906,0.2901,0.2842,0.2885,0.2817,0.281,0.2845,0.281,0.2809,0.2784,0.2779,0.2765,0.2738,0.2736,0.2742,0.2741,0.274,0.2739,0,0,0,0,0,0,0,0.3023,0.3012,0.2906,0.2909,0.2903,0.2902,0.2891,0.2872,0.2818,0.2842,0.2838,0.2828,0.2782,0.2767,0.2764,0.2735,0.2742,0.274,0.2739,0.2738,0.2729,0.273,0,0,0,0,0,0,0.3029,0.3016,0.2909,0.2904,0.2959,0.2899,0.2887,0.2862,0.2817,0.281,0.2828,0.2826,0.2771,0.2766,0.2761,0.2773,0.274,0.2738,0.2737,0.2728,0.2729,0.273,0,0,0,0,0,0,0.3033,0.302,0.2912,0.2959,0.2945,0.2896,0.2869,0.2861,0.2848,0.2807,0.28,0.2824,0.2771,0.2764,0.275,0.2769,0.2737,0.2735,0.2727,0.2728,0.273,0.2781,0,0,0,0,0,0,0.3037,0.3021,0.3017,0.2958,0.2942,0.289,0.2869,0.2859,0.2841,0.2838,0.2801,0.2795,0.277,0.2754,0.2748,0.2766,0.2733,0.2725,0.2727,0.2729,0.2778,0.2784,0.2789,0,0,0,0,0,0.3042,0.3024,0.3017,0.3004,0.2933,0.289,0.2882,0.2848,0.2842,0.2836,0.2816,0.2796,0.2762,0.2752,0.2746,0.2764,0.2725,0.2727,0.2729,0.2776,0.2783,0.2789,0,0,0,0,0,0,0.308,0.3016,0.3007,0.297,0.294,0.2882,0.2871,0.2854,0.2833,0.2831,0.28,0.2792,0.2792,0.2771,0.2761,0.2769,0.2744,0.2745,0.2782,0.2788,0.2794,0.2805,0.2732,0,0,0,0,0,0.3089,0.3062,0.3009,0.2984,0.2967,0.2925,0.2908,0.2885,0.2853,0.2843,0.2817,0.28,0.2796,0.2786,0.2773,0.2769,0.2773,0.278,0.2786,0.279,0.2796,0.2833,0.2843,0.2738,0.2738,0.2738,0,0,0.3099,0.306,0.3047,0.2993,0.2963,0.2939,0.2914,0.2884,0.2875,0.2841,0.2825,0.2817,0.2801,0.2801,0.2799,0.2784,0.2821,0.2793,0.2797,0.2801,0.2836,0.2847,0.2856,0.2739,0.2739,0.2739,0,0,0.309,0.3068,0.3039,0.3019,0.2976,0.2954,0.2949,0.2899,0.2889,0.2875,0.286,0.2867,0.2837,0.2839,0.2836,0.2866,0.2853,0.2861,0.2892,0.2928,0.2937,0.2945,0.2959,0.2967,0.286,0.286,0.286,0,0.3101,0.3058,0.3029,0.3001,0.2987,0.2963,0.2941,0.2931,0.2888,0.2893,0.2878,0.2877,0.2862,0.2884,0.2893,0.288,0.2889,0.2866,0.2936,0.2944,0.2951,0.2963,0.2973,0.2863,0.2862,0.2862,0.2862,0,0.3068,0.3047,0.303,0.299,0.2979,0.2956,0.2938,0.2938,0.2932,0.2926,0.2944,0.2931,0.2934,0.2936,0.2919,0.2967,0.2951,0.2943,0.292,0.2965,0.2975,0.2983,0.2867,0.2866,0.2865,0.2864,0,0,0.3039,0.301,0.3005,0.2994,0.2972,0.2951,0.2964,0.2961,0.2978,0.297,0.2994,0.3,0.3005,0.3003,0.2995,0.3021,0.3077,0.3002,0.3003,0.3018,0.3144,0.3082,0.3085,0.3082,0.3084,0.3086,0.3128,0,0.3015,0.2973,0.2971,0.2952,0.2926,0.2941,0.2958,0.2969,0.2983,0.3006,0.3028,0.3044,0.3028,0.3035,0.3065,0.3076,0.3103,0.3065,0.3097,0.3097,0.3038,0.3095,0.2942,0.2963,0.3137,0.3138,0.3139,0,0.2965,0.295,0.2921,0.2931,0.2924,0.2923,0.2955,0.2968,0.302,0.304,0.3079,0.3091,0.3135,0.3112,0.317,0.3146,0.3151,0.3157,0.3159,0.309,0.3052,0.2947,0.2972,0.2867,0.3152,0.3151,0.315,0,0.2927,0.2911,0.2891,0.2889,0.29,0.2909,0.2926,0.2973,0.3,0.3062,0.3098,0.3148,0.3176,0.3206,0.3221,0.3201,0.328,0.3254,0.3203,0.3198,0.3068,0.3048,0.2995,0.3301,0.3301,0.3301,0.33,0,0.2878,0.286,0.2872,0.2857,0.2863,0.2883,0.2907,0.2944,0.3009,0.305,0.3109,0.3151,0.3203,0.3249,0.3252,0.3259,0.331,0.3221,0.3214,0.308,0.3061,0.2962,0.2933,0.3302,0.3302,0.3301,0.3301,0,0.2814,0.282,0.28,0.2822,0.2831,0.2832,0.2885,0.291,0.2986,0.3046,0.3071,0.3167,0.3225,0.3268,0.3318,0.3291,0.32,0.3292,0.312,0.3091,0.2917,0.2898,0.277,0.2693,0.3235,0.3234,0.3233,0,0.2769,0.2751,0.2768,0.2765,0.2768,0.2786,0.2805,0.2881,0.2913,0.3045,0.3069,0.3161,0.3201,0.3261,0.323,0.3232,0.3154,0.3092,0.3025,0.2897,0.2871,0.2774,0.2713,0.2872,0.2868,0.2865,0.2862,0,0.27,0.2711,0.2705,0.2708,0.2714,0.2728,0.276,0.2788,0.2888,0.2953,0.3037,0.3085,0.3136,0.3066,0.3073,0.3053,0.2917,0.3026,0.2942,0.2627,0.247,0.2394,0.2848,0.2834,0.2837,0.2839,0.2841,0.2842,0.266,0.2648,0.2656,0.2645,0.2653,0.2658,0.2645,0.2703,0.2754,0.281,0.292,0.2919,0.2905,0.288,0.2856,0.2683,0.2715,0.257,0.2572,0.2497,0.2368,0.2755,0.2704,0.2706,0.2707,0.2709,0.271,0,0.2612,0.2605,0.2595,0.2576,0.2546,0.2582,0.2602,0.2576,0.2595,0.2652,0.2694,0.2609,0.2527,0.2498,0.2362,0.2241,0.2146,0.2166,0.199,0.1967,0.2344,0.2273,0.2066,0.2066,0.2066,0.2066,0.2066,0.2066,0.2593,0.2561,0.2547,0.2473,0.2452,0.2392,0.2382,0.237,0.2378,0.2307,0.2225,0.2208,0.2194,0.2092,0.1931,0.1887,0.1748,0.1642,0.1684,0.194,0.1977,0.2012,0.1936,0.1662,0.1661,0.1188,0.1185,0.1182]},{"header":{"parameterUnit":"m.s-1","parameterCategory":2,"la1":30.2991,"la2":30.254,"lo1":-89.0895,"lo2":-89.0444,"dy":0.0017,"dx":0.0017,"nx":28,"ny":28,"refTime":"2025-02-09T03:00:00:Z","depth":"0","parameterNumber":3,"parameterNumberName":"V-component_of_CURRENTS"},"data":[0,0,0,0,0,0,0,0,0,0,0,0,0,0,0,0,0,0,0,0,0,0,0,0,0,0,0,0,0,0,0,0,0,0,0,0,0,0,0,0,0,0,0,0,0,0,0,0,0,0,0,0,0,0,0,0,0,0,0.0245,0.0245,0,0.0239,0.0239,0.0239,0.0227,0.0227,0.0227,0.0226,0.0198,0.0198,0.0197,0,0,0,0,0,0,0,0,0,0,0,0,0,0.0209,0.0209,0.0245,0.0245,0.0245,0.0239,0.0239,0.0239,0.0227,0.0227,0.0226,0.0226,0.0199,0.0198,0.0197,0,0,0,0,0,0,0,0,0,0,0,0,0,0.0215,0.021,0.0245,0.0239,0.0239,0.0239,0.0239,0.0239,0.0227,0.0227,0.0226,0.0226,0.0199,0.0198,0.0197,0.0195,0,0,0.0194,0.0194,0,0,0,0,0,0,0,0,0.0214,0.0216,0.024,0.024,0.0239,0.0235,0.0216,0.0224,0.0227,0.023,0.0226,0.0226,0.021,0.0208,0.0205,0.0193,0.0192,0.0194,0.0193,0.0193,0.0193,0,0,0,0,0,0,0,0.0214,0.0216,0.0241,0.024,0.024,0.0225,0.0226,0.0217,0.0219,0.023,0.0229,0.0231,0.0209,0.0206,0.0205,0.0192,0.0194,0.0193,0.0193,0.0192,0.0182,0.0183,0,0,0,0,0,0,0.022,0.0216,0.0242,0.0241,0.0228,0.0226,0.0227,0.0235,0.022,0.0218,0.0231,0.023,0.0208,0.0206,0.0204,0.0216,0.0193,0.0192,0.0192,0.0182,0.0182,0.0183,0,0,0,0,0,0,0.0219,0.0223,0.0242,0.0229,0.0231,0.0227,0.0237,0.0235,0.0236,0.0221,0.0219,0.0233,0.0208,0.0205,0.0201,0.0214,0.0192,0.0191,0.0182,0.0182,0.0182,0.0231,0,0,0,0,0,0,0.0218,0.0223,0.0227,0.023,0.0232,0.0249,0.0237,0.0235,0.0238,0.0237,0.0222,0.0219,0.0207,0.0202,0.02,0.0212,0.019,0.0181,0.0182,0.0182,0.0229,0.0233,0.0236,0,0,0,0,0,0.0217,0.0229,0.0228,0.0231,0.024,0.025,0.0249,0.0245,0.0238,0.0243,0.0231,0.022,0.0204,0.0202,0.0199,0.0212,0.0181,0.0182,0.0182,0.0227,0.0232,0.0236,0,0,0,0,0,0,0.0214,0.0229,0.0228,0.0243,0.0248,0.0248,0.0253,0.0248,0.0243,0.024,0.0224,0.0221,0.0221,0.0208,0.0206,0.0209,0.0191,0.0191,0.0225,0.023,0.0234,0.025,0.0189,0,0,0,0,0,0.0216,0.0231,0.0239,0.0251,0.0256,0.0254,0.0256,0.0254,0.0251,0.0249,0.0239,0.0227,0.0221,0.0219,0.0209,0.0212,0.02,0.0217,0.0221,0.0225,0.0236,0.0231,0.0235,0.0185,0.0185,0.0185,0,0,0.0218,0.0228,0.0236,0.0251,0.0254,0.0273,0.0255,0.0263,0.0276,0.0246,0.0256,0.0239,0.0224,0.0227,0.0227,0.0219,0.023,0.0225,0.0229,0.0238,0.0232,0.0237,0.0241,0.0185,0.0185,0.0185,0,0,0.0236,0.0239,0.0261,0.0269,0.028,0.0283,0.0288,0.0291,0.0289,0.0295,0.0277,0.027,0.026,0.0255,0.0251,0.0269,0.0249,0.0262,0.0299,0.0294,0.0299,0.0302,0.0287,0.0289,0.0267,0.0267,0.0267,0,0.0236,0.0268,0.0266,0.029,0.0304,0.0293,0.032,0.0318,0.0317,0.0325,0.0304,0.0298,0.0277,0.0293,0.0294,0.0279,0.0269,0.0285,0.03,0.0304,0.0307,0.029,0.0291,0.0269,0.0269,0.0269,0.0269,0,0.0276,0.0297,0.0311,0.0342,0.0353,0.0373,0.0377,0.0383,0.0376,0.0379,0.0385,0.0354,0.0353,0.0342,0.0322,0.0337,0.0319,0.0304,0.0292,0.0315,0.0295,0.0296,0.0273,0.0272,0.0271,0.0271,0,0,0.0293,0.0333,0.0338,0.0365,0.0384,0.0403,0.0422,0.0448,0.0477,0.0454,0.0486,0.0456,0.0436,0.0429,0.04,0.0391,0.039,0.0359,0.0357,0.0349,0.0373,0.0362,0.0361,0.0379,0.038,0.038,0.0348,0,0.0328,0.0386,0.0394,0.0447,0.0481,0.0479,0.0508,0.0523,0.0528,0.0552,0.0519,0.0534,0.0471,0.0474,0.0451,0.0414,0.0396,0.0399,0.0347,0.0346,0.0338,0.0364,0.0399,0.0374,0.0349,0.0349,0.0349,0,0.0371,0.0407,0.0466,0.0519,0.0534,0.0559,0.061,0.0635,0.0657,0.066,0.0656,0.0632,0.0614,0.0557,0.0496,0.0502,0.0439,0.04,0.0398,0.0375,0.0337,0.0348,0.0376,0.0306,0.035,0.035,0.035,0,0.0401,0.0459,0.0511,0.0528,0.0582,0.0606,0.0636,0.0671,0.0713,0.0734,0.0767,0.0727,0.0722,0.0645,0.0544,0.0525,0.0479,0.0442,0.037,0.0367,0.0382,0.038,0.0345,0.0397,0.0397,0.0397,0.0397,0,0.0443,0.0484,0.0529,0.056,0.0632,0.0651,0.0729,0.075,0.08,0.0876,0.0826,0.0871,0.0745,0.0698,0.0588,0.0488,0.0507,0.0386,0.0366,0.0398,0.0398,0.0324,0.0278,0.0395,0.0396,0.0396,0.0396,0,0.0471,0.0498,0.0565,0.0626,0.0649,0.0703,0.0792,0.0853,0.089,0.0985,0.0999,0.0983,0.0931,0.0797,0.068,0.0559,0.042,0.0412,0.0451,0.0436,0.0297,0.0253,0.019,0.0152,0.0333,0.0332,0.0332,0,0.0493,0.0531,0.0613,0.0659,0.0688,0.0769,0.0834,0.0891,0.0964,0.1069,0.1121,0.11,0.1111,0.0924,0.0719,0.0532,0.0431,0.0417,0.0382,0.0307,0.0242,0.0205,0.0175,0.0413,0.0413,0.0413,0.0414,0,0.0538,0.0563,0.0617,0.0714,0.0784,0.0877,0.097,0.1044,0.1136,0.1231,0.1343,0.1366,0.1198,0.1043,0.0768,0.0622,0.0384,0.0416,0.0339,0.0308,0.0267,0.0216,0.0403,0.0417,0.0416,0.0416,0.0416,0.0416,0.0567,0.0613,0.0682,0.0776,0.0861,0.0976,0.1065,0.1184,0.133,0.1491,0.15,0.1571,0.1329,0.0976,0.0765,0.0416,0.0404,0.032,0.0272,0.0241,0.021,0.0396,0.0386,0.0385,0.0385,0.0384,0.0384,0,0.0604,0.0658,0.0744,0.0854,0.0951,0.0992,0.1151,0.1261,0.145,0.1601,0.1712,0.1638,0.1362,0.1019,0.0563,0.033,0.0226,0.0203,0.0167,0.0141,0.0316,0.0325,0.0303,0.0303,0.0303,0.0303,0.0303,0.0303,0.0624,0.0701,0.0747,0.0905,0.0987,0.1128,0.1225,0.1404,0.1544,0.1743,0.1798,0.1802,0.1558,0.083,0.0343,0.0214,0.0055,0.0027,-0.0065,0.0065,0.0073,0.008,0.0079,0.0004,0.0004,-0.02,-0.0202,-0.0203]}],[{"header":{"parameterUnit":"m.s-1","parameterCategory":2,"la1":30.2991,"la2":30.254,"lo1":-89.0895,"lo2":-89.0444,"dy":0.0017,"dx":0.0017,"nx":28,"ny":28,"refTime":"2025-02-09T03:00:00:Z","depth":"2","parameterNumber":2,"parameterNumberName":"U-component_of_CURRENTS"},"data":[0,0,0,0,0,0,0,0,0,0,0,0,0,0,0,0,0,0,0,0,0,0,0,0,0,0,0,0,0,0,0,0,0,0,0,0,0,0,0,0,0,0,0,0,0,0,0,0,0,0,0,0,0,0,0,0,0,0,0.2101,0.2102,0,0.2098,0.2097,0.2097,0.2089,0.2089,0.2089,0.2089,0.2076,0.2076,0.2075,0,0,0,0,0,0,0,0,0,0,0,0,0,0.211,0.211,0.2101,0.2102,0.2102,0.2098,0.2097,0.2097,0.2089,0.2089,0.2089,0.2089,0.2076,0.2076,0.2075,0,0,0,0,0,0,0,0,0,0,0,0,0,0.2104,0.2109,0.2101,0.2099,0.2099,0.2098,0.2097,0.2097,0.2089,0.2089,0.2089,0.2089,0.2076,0.2076,0.2075,0.2071,0,0,0.2073,0.2073,0,0,0,0,0,0,0,0,0.2104,0.2103,0.2099,0.2099,0.2099,0.2096,0.2096,0.2088,0.2089,0.209,0.2089,0.2089,0.2083,0.2082,0.2078,0.207,0.2069,0.2073,0.2073,0.2073,0.2073,0,0,0,0,0,0,0,0.2105,0.2104,0.2098,0.2099,0.2099,0.2101,0.21,0.2094,0.2085,0.209,0.209,0.2093,0.2083,0.2079,0.2078,0.2069,0.2073,0.2073,0.2073,0.2072,0.2105,0.2106,0,0,0,0,0,0,0.2109,0.2104,0.2098,0.2098,0.2104,0.2101,0.2099,0.2095,0.2085,0.2084,0.2093,0.2093,0.208,0.2079,0.2077,0.211,0.2073,0.2072,0.2072,0.2104,0.2105,0.2107,0,0,0,0,0,0,0.2109,0.2108,0.2098,0.2103,0.2102,0.2101,0.2096,0.2095,0.2102,0.2088,0.2086,0.2103,0.208,0.2078,0.2086,0.2108,0.2072,0.2071,0.2102,0.2104,0.2106,0.215,0,0,0,0,0,0,0.2109,0.2108,0.2111,0.2103,0.2102,0.2105,0.2096,0.2095,0.2104,0.2104,0.2095,0.2093,0.208,0.2087,0.2086,0.2106,0.2071,0.2101,0.2103,0.2105,0.2147,0.2153,0.2158,0,0,0,0,0,0.2109,0.211,0.2111,0.2111,0.2104,0.2106,0.2105,0.2103,0.2105,0.2109,0.2108,0.2094,0.2101,0.2087,0.2085,0.2106,0.21,0.2103,0.2105,0.2145,0.2152,0.2158,0,0,0,0,0,0,0.2114,0.211,0.211,0.2109,0.2113,0.2105,0.2112,0.2112,0.2114,0.2118,0.2103,0.2102,0.2119,0.2108,0.2094,0.2125,0.2101,0.2103,0.2131,0.2138,0.2144,0.2146,0.2071,0,0,0,0,0,0.2118,0.2118,0.2116,0.2118,0.2122,0.2121,0.2124,0.2124,0.2123,0.2125,0.2119,0.212,0.2127,0.2129,0.2128,0.214,0.2145,0.2156,0.2161,0.2166,0.2168,0.2208,0.2217,0.2116,0.2116,0.2115,0,0,0.2119,0.2119,0.2118,0.212,0.2123,0.2129,0.2122,0.2132,0.214,0.2123,0.2134,0.2138,0.2135,0.2151,0.2159,0.2145,0.2197,0.217,0.2174,0.2173,0.2212,0.2222,0.2231,0.2117,0.2117,0.2117,0,0,0.2122,0.2125,0.2127,0.2133,0.2144,0.2145,0.2152,0.2153,0.2158,0.2171,0.2166,0.2185,0.2186,0.2192,0.2196,0.2233,0.2227,0.2236,0.2264,0.2303,0.2312,0.232,0.2335,0.2344,0.2238,0.2238,0.2238,0,0.2128,0.2125,0.2129,0.2138,0.2144,0.2154,0.2161,0.217,0.2174,0.2189,0.2182,0.2213,0.2207,0.2239,0.2251,0.2246,0.226,0.2237,0.2311,0.2318,0.2326,0.234,0.2349,0.2241,0.224,0.224,0.224,0,0.2127,0.2134,0.2139,0.2151,0.216,0.2169,0.2183,0.2199,0.2212,0.2226,0.2263,0.2263,0.2285,0.229,0.2279,0.2329,0.232,0.2314,0.2293,0.2339,0.2351,0.2359,0.2244,0.2243,0.2242,0.2242,0,0,0.2115,0.2134,0.2137,0.2143,0.2167,0.2171,0.2201,0.2229,0.2258,0.2278,0.2313,0.2335,0.235,0.2355,0.2352,0.2379,0.2436,0.2369,0.2369,0.2382,0.2512,0.2447,0.245,0.2449,0.245,0.2452,0.2499,0,0.2114,0.2123,0.2137,0.2152,0.2157,0.2185,0.2212,0.2246,0.2278,0.2317,0.2347,0.2379,0.2371,0.2385,0.2417,0.2433,0.2462,0.2423,0.2467,0.2468,0.2404,0.2459,0.2233,0.2252,0.2508,0.2509,0.251,0,0.2103,0.2112,0.2121,0.2151,0.2158,0.2175,0.2224,0.2251,0.2322,0.2351,0.2404,0.2427,0.2477,0.2456,0.2525,0.2503,0.2513,0.252,0.2523,0.2452,0.242,0.2248,0.2258,0.2524,0.2523,0.2522,0.2521,0,0.2072,0.2099,0.2103,0.2111,0.2151,0.217,0.22,0.2266,0.2301,0.2378,0.2419,0.2481,0.2518,0.2552,0.2576,0.2559,0.2641,0.2619,0.257,0.2564,0.2374,0.2348,0.2668,0.2668,0.2668,0.2668,0.2668,0,0.2051,0.2056,0.2091,0.2091,0.2115,0.2153,0.2195,0.2242,0.2316,0.2366,0.2437,0.2481,0.2548,0.2599,0.2605,0.262,0.2673,0.2584,0.258,0.2382,0.2358,0.2593,0.2583,0.267,0.2669,0.2669,0.2668,0,0.2008,0.203,0.2038,0.208,0.2096,0.2115,0.2183,0.2215,0.2301,0.2367,0.2394,0.2504,0.2573,0.2624,0.2681,0.2655,0.2669,0.2656,0.2409,0.2375,0.2554,0.2547,0.2604,0.2603,0.2601,0.26,0.2599,0,0.1981,0.1981,0.2019,0.2027,0.2045,0.2082,0.2109,0.2194,0.2229,0.2368,0.239,0.2499,0.2541,0.2613,0.2585,0.2588,0.2656,0.2379,0.2302,0.2561,0.2552,0.2547,0.2541,0.2064,0.2059,0.2054,0.2051,0,0.1937,0.1955,0.1964,0.1981,0.2002,0.2024,0.2069,0.2093,0.2196,0.2251,0.2324,0.2373,0.2453,0.2356,0.238,0.2349,0.2359,0.229,0.2639,0.2119,0.2057,0.2046,0.2058,0.2012,0.2016,0.2019,0.2021,0.2023,0.1908,0.1903,0.192,0.1926,0.1947,0.1951,0.1938,0.1986,0.2021,0.2074,0.2184,0.2182,0.2204,0.2123,0.2052,0.1994,0.2162,0.2048,0.2059,0.2075,0.2008,0.1947,0.1868,0.1871,0.1874,0.1876,0.1878,0,0.1862,0.186,0.1862,0.1854,0.1833,0.1882,0.1892,0.1852,0.1837,0.1911,0.1943,0.1785,0.1723,0.1753,0.1593,0.1583,0.1549,0.1521,0.1449,0.1489,0.1525,0.1427,0.1134,0.1132,0.113,0.1128,0,0,0.1838,0.1812,0.1802,0.1739,0.1736,0.1677,0.1663,0.1617,0.1623,0.1581,0.1557,0.1686,0.1716,0.142,0.1365,0.1222,0.1351,0.1171,0.1768,0.1726,0.1759,0.183,0.1725,0,0,0,0,0]},{"header":{"parameterUnit":"m.s-1","parameterCategory":2,"la1":30.2991,"la2":30.254,"lo1":-89.0895,"lo2":-89.0444,"dy":0.0017,"dx":0.0017,"nx":28,"ny":28,"refTime":"2025-02-09T03:00:00:Z","depth":"2","parameterNumber":3,"parameterNumberName":"V-component_of_CURRENTS"},"data":[0,0,0,0,0,0,0,0,0,0,0,0,0,0,0,0,0,0,0,0,0,0,0,0,0,0,0,0,0,0,0,0,0,0,0,0,0,0,0,0,0,0,0,0,0,0,0,0,0,0,0,0,0,0,0,0,0,0,0.0214,0.0214,0,0.0194,0.0193,0.0193,0.0179,0.0179,0.0179,0.0179,0.0149,0.0149,0.0148,0,0,0,0,0,0,0,0,0,0,0,0,0,0.0203,0.0204,0.0214,0.0214,0.0214,0.0194,0.0193,0.0193,0.0179,0.0179,0.0179,0.0179,0.015,0.0149,0.0148,0,0,0,0,0,0,0,0,0,0,0,0,0,0.0198,0.0204,0.0214,0.0204,0.0203,0.0194,0.0193,0.0193,0.0179,0.0179,0.0179,0.0178,0.015,0.0149,0.0148,0.0143,0,0,0.0145,0.0144,0,0,0,0,0,0,0,0,0.0198,0.0198,0.0206,0.0205,0.0204,0.0189,0.0179,0.0176,0.0179,0.0188,0.0179,0.0178,0.0162,0.016,0.0156,0.0142,0.014,0.0144,0.0144,0.0143,0.0143,0,0,0,0,0,0,0,0.0198,0.0199,0.0205,0.0206,0.0205,0.0189,0.0188,0.0178,0.0175,0.0187,0.0186,0.0184,0.0162,0.0157,0.0155,0.014,0.0144,0.0143,0.0143,0.0142,0.0128,0.0128,0,0,0,0,0,0,0.0204,0.0199,0.0206,0.0205,0.0201,0.0189,0.0188,0.0193,0.0175,0.0173,0.0185,0.0184,0.0159,0.0156,0.0154,0.0162,0.0143,0.0142,0.0142,0.0127,0.0128,0.0128,0,0,0,0,0,0,0.0204,0.0205,0.0207,0.0201,0.0201,0.019,0.0195,0.0193,0.0191,0.0174,0.0171,0.0185,0.0159,0.0156,0.0151,0.016,0.0142,0.0141,0.0127,0.0127,0.0128,0.0169,0,0,0,0,0,0,0.0204,0.0206,0.0209,0.0202,0.0201,0.0207,0.0195,0.0193,0.0191,0.019,0.0174,0.0171,0.0158,0.0153,0.015,0.0159,0.014,0.0127,0.0127,0.0128,0.0167,0.0171,0.0174,0,0,0,0,0,0.0204,0.0213,0.021,0.0211,0.0208,0.0207,0.0206,0.0196,0.0191,0.0194,0.0183,0.0171,0.0154,0.0152,0.0149,0.0157,0.0126,0.0127,0.0128,0.0166,0.017,0.0173,0,0,0,0,0,0,0.0207,0.0212,0.0209,0.0218,0.0215,0.0205,0.0206,0.02,0.0193,0.0191,0.0175,0.0171,0.0169,0.0157,0.0156,0.0154,0.0138,0.0138,0.0168,0.0172,0.0175,0.0189,0.0139,0,0,0,0,0,0.0211,0.0221,0.0218,0.0224,0.0225,0.0216,0.0213,0.0208,0.0202,0.0198,0.0188,0.0176,0.0169,0.0166,0.0154,0.0155,0.014,0.0158,0.0161,0.0164,0.0172,0.0156,0.0159,0.013,0.013,0.013,0,0,0.0213,0.0217,0.0222,0.0226,0.0222,0.0232,0.0214,0.0215,0.0223,0.0196,0.0202,0.0185,0.017,0.017,0.0169,0.0163,0.0163,0.0164,0.0167,0.0174,0.0157,0.016,0.0163,0.013,0.013,0.013,0,0,0.0227,0.0227,0.0241,0.0244,0.0243,0.0241,0.0244,0.0238,0.0235,0.0236,0.022,0.0211,0.02,0.0193,0.0187,0.0201,0.0178,0.0195,0.0226,0.0211,0.0213,0.0215,0.0196,0.0196,0.02,0.02,0.02,0,0.0229,0.0249,0.0243,0.0257,0.0265,0.025,0.0268,0.0263,0.0256,0.026,0.0244,0.023,0.0212,0.0219,0.0222,0.021,0.0195,0.0214,0.0216,0.0217,0.0219,0.0198,0.0198,0.0202,0.0202,0.0201,0.0201,0,0.0256,0.027,0.0278,0.0296,0.0302,0.0313,0.0311,0.0313,0.0306,0.0304,0.0303,0.0275,0.027,0.026,0.0246,0.025,0.0234,0.022,0.0208,0.0224,0.0201,0.02,0.0205,0.0204,0.0203,0.0203,0,0,0.0269,0.0294,0.0297,0.0316,0.0326,0.0337,0.035,0.0364,0.0384,0.0361,0.038,0.0354,0.0336,0.0329,0.0304,0.0289,0.0279,0.0263,0.0261,0.0248,0.0243,0.0227,0.0224,0.0265,0.0265,0.0265,0.0221,0,0.0294,0.0334,0.0337,0.0376,0.0399,0.0394,0.0416,0.0424,0.0423,0.0435,0.0403,0.0407,0.0364,0.0361,0.0339,0.0299,0.0278,0.0292,0.0226,0.0224,0.0212,0.0223,0.0239,0.0202,0.022,0.022,0.022,0,0.0321,0.0348,0.0391,0.0431,0.0441,0.0459,0.0496,0.0514,0.0522,0.0521,0.051,0.0483,0.046,0.0417,0.0353,0.0364,0.0308,0.0268,0.0265,0.0238,0.0207,0.0189,0.0198,0.0217,0.0217,0.0217,0.0218,0,0.0345,0.0386,0.0425,0.0438,0.0478,0.0496,0.052,0.0541,0.0573,0.0575,0.0594,0.0551,0.0541,0.0466,0.0376,0.0366,0.0301,0.0276,0.0206,0.0204,0.0199,0.0197,0.0226,0.0226,0.0226,0.0226,0.0226,0,0.0376,0.0407,0.0441,0.0464,0.0522,0.0534,0.0595,0.0608,0.0641,0.0695,0.0642,0.0663,0.0553,0.05,0.0403,0.0306,0.0319,0.0217,0.0195,0.0213,0.0212,0.0211,0.021,0.0224,0.0225,0.0225,0.0225,0,0.0397,0.0417,0.0468,0.0515,0.0535,0.0578,0.065,0.0697,0.0717,0.0782,0.0786,0.0752,0.0687,0.0568,0.0451,0.0353,0.0252,0.0209,0.0234,0.0217,0.0155,0.0157,0.0131,0.013,0.0129,0.0129,0.0128,0,0.0413,0.0441,0.0507,0.0546,0.057,0.0636,0.069,0.0732,0.0789,0.0844,0.088,0.0833,0.0816,0.0633,0.0457,0.0288,0.0256,0.0175,0.0156,0.0166,0.0147,0.015,0.0152,0.016,0.016,0.016,0.016,0,0.0445,0.0465,0.051,0.0593,0.0652,0.0731,0.0808,0.0864,0.0928,0.098,0.1034,0.1021,0.0859,0.0695,0.0456,0.0334,0.0202,0.0166,0.0177,0.0184,0.019,0.0173,0.0175,0.0159,0.0159,0.0159,0.0159,0.0159,0.0468,0.0505,0.0565,0.0644,0.0719,0.0816,0.0886,0.0971,0.1068,0.115,0.1138,0.112,0.0934,0.0633,0.0427,0.02,0.0213,0.0119,0.0121,0.0123,0.0136,0.0141,0.0102,0.0102,0.0102,0.0102,0.0102,0,0.05,0.0543,0.0614,0.0708,0.0793,0.0832,0.096,0.1031,0.1147,0.121,0.125,0.1065,0.0885,0.0659,0.0337,0.0147,0.0128,0.0068,0.0094,0.0097,0.0099,0.0111,0.0071,0.007,0.0069,0.0069,0,0,0.0516,0.0582,0.0618,0.0751,0.0823,0.0941,0.1017,0.112,0.119,0.1248,0.1236,0.1211,0.0949,0.0706,0.0452,0.0264,0.0218,0.0216,0.0263,0.0328,0.0332,0.0152,0.0178,0,0,0,0,0]}],[{"header":{"parameterUnit":"m.s-1","parameterCategory":2,"la1":30.2991,"la2":30.254,"lo1":-89.0895,"lo2":-89.0444,"dy":0.0017,"dx":0.0017,"nx":28,"ny":28,"refTime":"2025-02-09T03:00:00:Z","depth":"4","parameterNumber":2,"parameterNumberName":"U-component_of_CURRENTS"},"data":[0,0,0,0,0,0,0,0,0,0,0,0,0,0,0,0,0,0,0,0,0,0,0,0,0,0,0,0,0,0,0,0,0,0,0,0,0,0,0,0,0,0,0,0,0,0,0,0,0,0,0,0,0,0,0,0,0,0,0.1267,0.1267,0,0.1312,0.1312,0.1313,0.1351,0.1352,0.1352,0.1353,0.1402,0.1402,0.1403,0,0,0,0,0,0,0,0,0,0,0,0,0,0.1217,0.1218,0.1267,0.1267,0.1268,0.1312,0.1312,0.1313,0.1351,0.1352,0.1352,0.1353,0.1402,0.1402,0.1403,0,0,0,0,0,0,0,0,0,0,0,0,0,0.1246,0.1218,0.1266,0.1294,0.1297,0.1312,0.1312,0.1313,0.1351,0.1352,0.1353,0.1354,0.1401,0.1402,0.1403,0.1392,0,0,0.1407,0.1407,0,0,0,0,0,0,0,0,0.1245,0.1248,0.1289,0.1292,0.1296,0.1329,0.1313,0.134,0.1351,0.1328,0.1353,0.1354,0.1378,0.1381,0.1385,0.1394,0.1396,0.1407,0.1407,0.1408,0.1408,0,0,0,0,0,0,0,0.1243,0.1246,0.1283,0.129,0.1294,0.1306,0.131,0.1318,0.1346,0.133,0.1334,0.1342,0.138,0.1384,0.1386,0.1397,0.1407,0.1408,0.1408,0.1409,0.1489,0.1491,0,0,0,0,0,0,0.124,0.1244,0.1281,0.1284,0.1274,0.1306,0.1311,0.1315,0.1346,0.1352,0.1341,0.1343,0.1381,0.1385,0.1388,0.1454,0.1408,0.1409,0.141,0.1488,0.149,0.1491,0,0,0,0,0,0,0.1238,0.1242,0.1279,0.1267,0.1273,0.1306,0.131,0.1316,0.135,0.1354,0.136,0.1373,0.1382,0.1387,0.1424,0.1453,0.1409,0.141,0.1486,0.1488,0.149,0.1536,0,0,0,0,0,0,0.1237,0.1242,0.1257,0.1267,0.1274,0.1306,0.131,0.1316,0.1353,0.1357,0.1383,0.1387,0.1383,0.1422,0.1425,0.1454,0.1411,0.1484,0.1487,0.149,0.1532,0.1539,0.1545,0,0,0,0,0,0.1235,0.1247,0.1257,0.1263,0.1289,0.1307,0.1312,0.1337,0.1354,0.1371,0.1394,0.1388,0.1442,0.1424,0.1427,0.1457,0.1483,0.1486,0.1489,0.1529,0.1538,0.1545,0,0,0,0,0,0,0.1235,0.1252,0.1264,0.1282,0.1303,0.1315,0.1339,0.1354,0.1385,0.14,0.1403,0.1408,0.1452,0.1449,0.143,0.149,0.1463,0.1467,0.1492,0.15,0.1506,0.1505,0.1412,0,0,0,0,0,0.1241,0.1257,0.1273,0.1292,0.1306,0.1329,0.1346,0.1363,0.1385,0.1401,0.1419,0.1441,0.1462,0.1478,0.1492,0.1522,0.1524,0.1546,0.1552,0.1557,0.1559,0.1596,0.1605,0.1502,0.1502,0.1502,0,0,0.1248,0.126,0.1271,0.1295,0.1316,0.1337,0.1342,0.1377,0.14,0.14,0.1447,0.1465,0.1475,0.1511,0.1531,0.1517,0.1588,0.1562,0.1566,0.1565,0.16,0.161,0.1619,0.1504,0.1504,0.1504,0,0,0.1261,0.1282,0.1298,0.1317,0.1353,0.1365,0.1382,0.1411,0.1435,0.1475,0.1484,0.1521,0.1552,0.1564,0.1574,0.1624,0.162,0.1636,0.1667,0.1703,0.1712,0.1719,0.1732,0.174,0.164,0.164,0.164,0,0.1274,0.1289,0.1308,0.1329,0.1349,0.138,0.1403,0.1428,0.1467,0.1493,0.15,0.1566,0.1575,0.1617,0.1636,0.1638,0.1652,0.1635,0.1711,0.1718,0.1725,0.1737,0.1745,0.1642,0.1642,0.1642,0.1641,0,0.1286,0.1313,0.1328,0.1361,0.1385,0.1412,0.1443,0.148,0.1516,0.1543,0.1605,0.1623,0.1663,0.1674,0.1671,0.1728,0.1719,0.1714,0.1689,0.1738,0.1747,0.1755,0.1646,0.1645,0.1644,0.1644,0,0,0.128,0.1327,0.1336,0.1357,0.1405,0.1422,0.1471,0.1518,0.156,0.1609,0.1659,0.1703,0.1728,0.174,0.1747,0.1775,0.1834,0.1771,0.1771,0.1778,0.1906,0.1771,0.1766,0.1848,0.185,0.1852,0.1891,0,0.1289,0.1324,0.1348,0.1392,0.1411,0.1456,0.1495,0.1548,0.1597,0.1655,0.1697,0.1749,0.1749,0.1778,0.181,0.1831,0.1858,0.1823,0.1861,0.1862,0.1731,0.1772,0.1857,0.1897,0.1899,0.19,0.1901,0,0.1287,0.1312,0.1351,0.1404,0.142,0.1456,0.1528,0.157,0.1655,0.1698,0.1765,0.1799,0.1859,0.1846,0.1915,0.1898,0.1909,0.1916,0.1918,0.1779,0.1741,0.1839,0.1915,0.1914,0.1913,0.1912,0.1911,0,0.1254,0.1312,0.1342,0.136,0.1427,0.1465,0.1511,0.1593,0.1638,0.1735,0.1782,0.1856,0.1904,0.1939,0.1965,0.1953,0.2024,0.2007,0.1893,0.1883,0.1974,0.1965,0.2053,0.2053,0.2053,0.2052,0.2052,0,0.1233,0.1263,0.1336,0.1351,0.1401,0.1458,0.1525,0.1583,0.1672,0.1725,0.1809,0.1851,0.1935,0.1982,0.199,0.1963,0.2052,0.1899,0.1887,0.1991,0.1984,0.1979,0.197,0.2054,0.2054,0.2053,0.2053,0,0.1186,0.1234,0.1276,0.1356,0.1386,0.1426,0.1526,0.1566,0.1665,0.1735,0.177,0.1877,0.1932,0.1986,0.2041,0.1982,0.1974,0.1943,0.2048,0.2041,0.1801,0.1794,0.181,0.1806,0.1802,0.1799,0.1796,0,0.116,0.1178,0.127,0.1298,0.134,0.141,0.1451,0.1554,0.1592,0.1728,0.1745,0.1846,0.1899,0.1867,0.1936,0.1935,0.1912,0.1887,0.1838,0.1791,0.1779,0.1777,0.1776,0.179,0.1789,0.1788,0.1787,0,0.1112,0.1161,0.1195,0.1252,0.1303,0.1345,0.1413,0.1428,0.1539,0.1644,0.167,0.1695,0.1751,0.1783,0.1798,0.1795,0.1889,0.1848,0.1855,0.1808,0.1767,0.1758,0.1761,0.1774,0.1776,0.1777,0.1778,0,0.1085,0.1096,0.1151,0.119,0.1247,0.1257,0.1303,0.1336,0.1385,0.1521,0.1529,0.1632,0.1734,0.1711,0.1727,0.1712,0.1679,0.1606,0.1625,0.164,0.1565,0.1487,0.1398,0,0,0,0,0,0.1048,0.1047,0.1079,0.1106,0.1156,0.119,0.1262,0.1308,0.141,0.1383,0.1448,0.1487,0.1508,0.1567,0.1516,0.1656,0.1691,0.1589,0.1619,0.1702,0.1717,0.1644,0,0,0,0,0,0,0.1019,0.1049,0.105,0.1028,0.1031,0.1069,0.1113,0.1183,0.1169,0.1282,0.1304,0.1386,0.1437,0.1524,0.1487,0.1502,0.1484,0.1654,0.1649,0.1694,0.1707,0.1719,0.1649,0,0,0,0,0]},{"header":{"parameterUnit":"m.s-1","parameterCategory":2,"la1":30.2991,"la2":30.254,"lo1":-89.0895,"lo2":-89.0444,"dy":0.0017,"dx":0.0017,"nx":28,"ny":28,"refTime":"2025-02-09T03:00:00:Z","depth":"4","parameterNumber":3,"parameterNumberName":"V-component_of_CURRENTS"},"data":[0,0,0,0,0,0,0,0,0,0,0,0,0,0,0,0,0,0,0,0,0,0,0,0,0,0,0,0,0,0,0,0,0,0,0,0,0,0,0,0,0,0,0,0,0,0,0,0,0,0,0,0,0,0,0,0,0,0,0.0172,0.0172,0,0.0158,0.0158,0.0158,0.0151,0.0151,0.0151,0.0151,0.0132,0.0132,0.0131,0,0,0,0,0,0,0,0,0,0,0,0,0,0.0167,0.0167,0.0172,0.0172,0.0172,0.0158,0.0158,0.0158,0.0151,0.0151,0.0151,0.0152,0.0133,0.0132,0.0131,0,0,0,0,0,0,0,0,0,0,0,0,0,0.0163,0.0168,0.0172,0.0167,0.0167,0.0158,0.0158,0.0158,0.0151,0.0151,0.0151,0.0152,0.0133,0.0132,0.0131,0.0125,0,0,0.0129,0.0128,0,0,0,0,0,0,0,0,0.0163,0.0163,0.0168,0.0168,0.0167,0.0157,0.0149,0.0147,0.0151,0.0157,0.0151,0.0152,0.014,0.0139,0.0136,0.0124,0.0124,0.0129,0.0128,0.0128,0.0128,0,0,0,0,0,0,0,0.0163,0.0163,0.0167,0.0168,0.0167,0.0156,0.0156,0.0148,0.0148,0.0157,0.0156,0.0155,0.014,0.0137,0.0135,0.0123,0.0129,0.0128,0.0127,0.0127,0.0117,0.0117,0,0,0,0,0,0,0.0167,0.0164,0.0167,0.0166,0.0165,0.0157,0.0156,0.016,0.0148,0.0147,0.0155,0.0154,0.0138,0.0136,0.0135,0.0143,0.0128,0.0127,0.0127,0.0117,0.0117,0.0117,0,0,0,0,0,0,0.0167,0.0168,0.0168,0.0164,0.0164,0.0157,0.0161,0.016,0.0161,0.0147,0.0145,0.0158,0.0138,0.0136,0.0135,0.0142,0.0127,0.0126,0.0116,0.0117,0.0117,0.015,0,0,0,0,0,0,0.0167,0.0168,0.0172,0.0165,0.0164,0.0168,0.0161,0.0159,0.0159,0.0159,0.0149,0.0147,0.0138,0.0136,0.0134,0.0141,0.0125,0.0116,0.0117,0.0117,0.0149,0.0152,0.0154,0,0,0,0,0,0.0167,0.0174,0.0173,0.0173,0.017,0.0168,0.0167,0.0162,0.016,0.0163,0.0157,0.0148,0.0137,0.0136,0.0133,0.014,0.0116,0.0116,0.0117,0.0148,0.0151,0.0154,0,0,0,0,0,0,0.0172,0.0173,0.0172,0.0179,0.0176,0.0167,0.0169,0.0165,0.0163,0.0163,0.0151,0.0149,0.0149,0.0139,0.0138,0.0137,0.0124,0.0124,0.0149,0.0152,0.0154,0.0164,0.0125,0,0,0,0,0,0.0175,0.0183,0.0179,0.0184,0.0184,0.0177,0.0176,0.0173,0.0169,0.0168,0.0161,0.0153,0.0148,0.0147,0.0139,0.0139,0.0124,0.0141,0.0144,0.0146,0.0152,0.0134,0.0136,0.0119,0.0119,0.0119,0,0,0.0178,0.018,0.0184,0.0186,0.0183,0.019,0.0177,0.0178,0.0185,0.0166,0.0173,0.0162,0.015,0.0151,0.015,0.0145,0.0142,0.0147,0.0149,0.0154,0.0135,0.0136,0.0138,0.0119,0.0119,0.0119,0,0,0.0188,0.019,0.0199,0.0201,0.02,0.0199,0.0201,0.0196,0.0196,0.0199,0.0188,0.0182,0.0175,0.0169,0.0165,0.0176,0.0155,0.0173,0.0196,0.0178,0.018,0.0181,0.016,0.0159,0.0176,0.0176,0.0176,0,0.0191,0.0205,0.0201,0.021,0.0216,0.0206,0.0219,0.0217,0.0212,0.0216,0.0207,0.0197,0.0184,0.0188,0.0192,0.0182,0.0168,0.0186,0.0182,0.0183,0.0183,0.0162,0.0161,0.0177,0.0177,0.0177,0.0177,0,0.0209,0.0221,0.0226,0.0239,0.0244,0.0252,0.0251,0.0255,0.0253,0.025,0.0251,0.0231,0.0228,0.022,0.0211,0.0211,0.0198,0.0186,0.0176,0.0187,0.0164,0.0162,0.018,0.0179,0.0179,0.0178,0,0,0.0217,0.0236,0.0239,0.0254,0.0262,0.027,0.0282,0.0292,0.0308,0.0293,0.0306,0.0289,0.0277,0.0271,0.0253,0.0238,0.0224,0.0218,0.0216,0.02,0.0184,0.0167,0.0162,0.0212,0.0212,0.0212,0.0166,0,0.0234,0.0262,0.0267,0.0297,0.0312,0.0313,0.0331,0.0337,0.0338,0.0346,0.0322,0.0326,0.0297,0.0297,0.0276,0.0241,0.022,0.0238,0.0173,0.0171,0.0157,0.016,0.0212,0.0164,0.0163,0.0163,0.0163,0,0.025,0.0271,0.0304,0.0336,0.0343,0.0361,0.039,0.0406,0.0411,0.041,0.0402,0.0381,0.0361,0.0332,0.0273,0.0286,0.024,0.0205,0.0202,0.0175,0.015,0.015,0.0158,0.0158,0.0159,0.0159,0.0159,0,0.0263,0.0296,0.0327,0.0338,0.0371,0.0389,0.041,0.0427,0.0452,0.0453,0.0463,0.0429,0.042,0.0357,0.0284,0.028,0.0213,0.0196,0.0134,0.0132,0.0146,0.0146,0.015,0.015,0.015,0.015,0.015,0,0.0281,0.0306,0.0338,0.0357,0.0404,0.0417,0.0466,0.0479,0.0504,0.0541,0.0501,0.0509,0.0427,0.0377,0.0299,0.0212,0.0222,0.0139,0.012,0.0161,0.0162,0.0144,0.0144,0.0148,0.0148,0.0149,0.0149,0,0.029,0.0309,0.0349,0.0393,0.0412,0.0448,0.0511,0.0547,0.0562,0.0604,0.0607,0.0574,0.051,0.0416,0.0316,0.0241,0.0152,0.0116,0.0168,0.0152,0.0078,0.008,0.0044,0.0043,0.0042,0.0041,0.0041,0,0.0296,0.0317,0.0378,0.0411,0.0435,0.0492,0.0537,0.0575,0.0614,0.0644,0.0664,0.0618,0.058,0.0426,0.0321,0.0167,0.014,0.0085,0.0077,0.0083,0.0067,0.0071,0.0074,0.0039,0.0039,0.0039,0.0039,0,0.031,0.0332,0.0369,0.0439,0.0492,0.0556,0.0619,0.065,0.0698,0.071,0.071,0.0632,0.0559,0.0433,0.0313,0.0201,0.0116,0.0076,0.0077,0.0069,0.0077,0.0063,0.0068,0.0036,0.0036,0.0037,0.0037,0,0.0322,0.035,0.04,0.0464,0.0534,0.0601,0.0633,0.068,0.0719,0.0745,0.0744,0.0661,0.062,0.045,0.0341,0.0228,0.0193,0.0141,0.0138,0.0139,0.0175,0.02,0.0183,0,0,0,0,0,0.0333,0.0366,0.0423,0.0493,0.0564,0.0606,0.0682,0.071,0.0751,0.0756,0.0752,0.0682,0.0526,0.046,0.0345,0.0313,0.0165,0.0171,0.0102,0.002,0.0024,0.0047,0,0,0,0,0,0,0.034,0.0391,0.0419,0.0507,0.0558,0.0639,0.0689,0.0717,0.072,0.074,0.0662,0.0634,0.0484,0.0592,0.0336,0.0304,0.0238,0.0104,0.0101,0.0019,0.0021,0.0024,0.0049,0,0,0,0,0]}]]